Tracking 20093 objects as of 16-Dec-2019
HD Live streaming from Space Station
objects crossing your sky now

IRIDIUM 33 DEB

Track IRIDIUM 33 DEB now!
10-day predictions


NORAD ID: 34099
Int'l Code: 1997-051DJ
Perigee: 685.6 km
Apogee: 705.7 km
Inclination: 86.4 °
Period: 98.5 minutes
Semi major axis: 7066 km
RCS: 0.027 m2 (small)
Launch date: September 14, 1997
Source: United States (US)
Launch site: TYURATAM MISSILE AND SPACE COMPLEX (TTMTR)

Note: This is SATELLITE DEBRIS
aabbcc
Your satellite tracking list
Your tracking list is empty




NASA's NSSDC Master Catalog

Two Line Element Set (TLE):
1 34099U 97051DJ  19349.99294366  .00001884  00000-0  37567-3 0  9993
2 34099  86.3677 224.4672 0014193 248.5969 177.5898 14.61436304571787
Source of the keplerian elements: AFSPC